Terug naar catalogus

ONEWEB-0345

ActiefCommunicatiePO
NORAD 49211·PAYLOAD·🇬🇧 United Kingdom

Gelanceerd Sep 14, 2021 vanaf Baikonur Cosmodrome

Loading…

Volgende Passages (komende 24 uur)

TLE

VersSource: CelesTrak SupGP

Epoch: Sep 14, 2026, 17:13 UTC

1 49211C 21083AB  26257.71785139 -.00002780  00000+0 -76207-2 0  2573
2 49211  87.8920 302.4145 0001610 100.4560   1.8184 13.13472724    13

Volg ONEWEB-0345 in realtime met AllMySat

Download on the App Store